Weather observations for the past three days for
Mineral Wells, Mineral Wells Airport
| Date | Time (cdt) | Wind (mph) | Vis. (mi.) | Weather | Sky Cond. | Temperature (ºF) | Relative Humidity | Wind Chill (°F) | Heat Index (°F) | Pressure | Precipitation (in) | ||||||
|---|---|---|---|---|---|---|---|---|---|---|---|---|---|---|---|---|---|
| Air | Dwpt | 6 hour | altimeter (in) | sea level (mb) | 1 hr | 3 hr | 6 hr | ||||||||||
| Max. | Min. | ||||||||||||||||
| 07 | 15:53 | S 5 | 10.00 | Fair | CLR | 71.1 | 50 | 47% | 30 | 1015.3 | |||||||
| 07 | 14:53 | NE 7 | 10.00 | Fair | CLR | 72 | 48.9 | 44% | 30.01 | 1015.3 | |||||||
| 07 | 13:53 | Calm | 10.00 | Fair | CLR | 70 | 48.9 | 47% | 30.04 | 1016.7 | |||||||
| 07 | 12:53 | N 12 G 18 | 10.00 | Fair | CLR | 69.1 | 48 | 69.1 | 48.9 | 47% | 30.05 | 1016.7 | |||||
| 07 | 11:53 | NE 10 | 10.00 | Fair | CLR | 68 | 46.9 | 47% | 30.09 | 1018.2 | |||||||
| 07 | 10:53 | Calm | 10.00 | Fair | CLR | 64 | 50 | 60% | 30.11 | 1018.8 | |||||||
| 07 | 09:53 | N 6 | 10.00 | Fair | CLR | 60.1 | 50 | 70% | 30.12 | 1019.3 | |||||||
| 07 | 08:53 | N 6 | 10.00 | Fair | CLR | 55 | 50 | 83% | 30.13 | 1019.6 | |||||||
| 07 | 07:53 | NW 3 | 10.00 | Fair | CLR | 52 | 48.9 | 89% | 30.13 | 1019.6 | |||||||
| 07 | 06:53 | Calm | 10.00 | Fair | CLR | 48.9 | 46.9 | 54 | 48.9 | 93% | 30.12 | 1019.2 | |||||
| 07 | 05:53 | N 5 | 10.00 | Fair | CLR | 50 | 48 | 93% | 49 | 30.11 | 1019.0 | ||||||
| 07 | 04:53 | NW 5 | 10.00 | Fair | CLR | 51.1 | 48 | 89% | 30.09 | 1018.4 | |||||||
| 07 | 03:53 | NW 3 | 10.00 | Fair | CLR | 51.1 | 48 | 89% | 30.07 | 1017.5 | |||||||
| 07 | 02:53 | N 5 | 10.00 | Fair | CLR | 52 | 48 | 86% | 30.05 | 1017.0 | |||||||
| 07 | 01:53 | N 6 | 10.00 | Fair | CLR | 52 | 48.9 | 89% | 30.05 | 1017.0 | |||||||
| 07 | 00:53 | NE 3 | 10.00 | Fair | CLR | 54 | 48.9 | 64 | 54 | 83% | 30.03 | 1016.2 | |||||
| 06 | 23:53 | NE 7 | 10.00 | Fair | CLR | 55 | 50 | 83% | 30.03 | 1016.3 | |||||||
| 06 | 22:53 | NE 7 | 10.00 | Fair | CLR | 55.9 | 50 | 81% | 30.02 | 1016.2 | |||||||
| 06 | 21:53 | NE 6 | 10.00 | Fair | CLR | 57.9 | 51.1 | 78% | 30.01 | 1015.8 | |||||||
| 06 | 20:53 | N 9 | 10.00 | Fair | CLR | 59 | 51.1 | 75% | 29.99 | 1015.0 | |||||||
| 06 | 19:53 | N 8 | 10.00 | Fair | CLR | 62.1 | 51.1 | 67% | 29.96 | 1013.8 | |||||||
| 06 | 18:53 | N 12 | 10.00 | A Few Clouds | FEW035 | 64 | 52 | 70 | 59 | 65% | 29.94 | 1013.2 | |||||
| 06 | 17:53 | NE 12 | 10.00 | Mostly Cloudy | BKN036 | 68 | 53.1 | 59% | 29.92 | 1012.3 | |||||||
| 06 | 16:53 | NE 9 | 10.00 | A Few Clouds | FEW034 | 68 | 53.1 | 59% | 29.91 | 1012.0 | |||||||
| 06 | 15:53 | NE 5 | 10.00 | A Few Clouds | FEW031 | 66.9 | 53.1 | 61% | 29.92 | 1012.4 | |||||||
| 06 | 14:53 | NE 7 | 10.00 | A Few Clouds | FEW028 | 64.9 | 51.1 | 61% | 29.94 | 1013.1 | |||||||
| 06 | 13:53 | Vrbl 5 | 10.00 | A Few Clouds | FEW025 | 62.1 | 50 | 65% | 29.96 | 1013.7 | |||||||
| 06 | 12:53 | N 8 | 10.00 | Overcast | OVC022 | 60.1 | 48.9 | 60.1 | 51.1 | 67% | 29.96 | 1013.8 | 0.06 | ||||
| 06 | 11:53 | N 14 | 10.00 | Overcast | OVC017 | 55.9 | 48 | 75% | 29.95 | 1013.7 | |||||||
| 06 | 10:53 | N 8 | 10.00 | Overcast | OVC013 | 52 | 48 | 86% | 29.97 | 1014.2 | |||||||
| 06 | 09:53 | N 13 G 24 | 5.00 | Light Rain Fog/Mist | SCT013 BKN100 OVC120 | 51.1 | 48 | 89% | 29.94 | 1013.3 | 0.05 | 0.06 | |||||
| 06 | 08:53 | N 7 | 10.00 | Light Rain | OVC014 | 51.1 | 48 | 89% | 29.96 | 1014.0 | 0.01 | ||||||
| 06 | 07:53 | N 13 | 10.00 | Overcast | OVC014 | 52 | 46 | 80% | 29.92 | 1012.6 | |||||||
| 06 | 06:53 | N 14 G 21 | 10.00 | Overcast | OVC016 | 52 | 45 | 59 | 52 | 77% | 29.91 | 1012.1 | |||||
| 06 | 05:53 | N 16 | 10.00 | Overcast | OVC018 | 52 | 46 | 80% | 29.89 | 1011.2 | |||||||
| 06 | 04:53 | N 10 | 10.00 | Overcast | OVC022 | 54 | 48 | 80% | 29.86 | 1010.1 | |||||||
| 06 | 03:53 | N 13 | 10.00 | Overcast | OVC024 | 55 | 48 | 77% | 29.84 | 1009.4 | |||||||
| 06 | 02:53 | N 10 | 10.00 | Overcast | OVC026 | 57 | 50 | 78% | 29.83 | 1008.9 | |||||||
| 06 | 01:53 | N 9 | 10.00 | Mostly Cloudy | BKN027 | 57.9 | 52 | 81% | 29.83 | 1009.0 | |||||||
| 06 | 00:53 | NE 8 | 10.00 | Overcast | OVC029 | 59 | 52 | 72 | 59 | 78% | 29.81 | 1008.4 | |||||
| 05 | 23:53 | N 10 | 10.00 | Overcast | OVC031 | 59 | 51.1 | 75% | 29.82 | 1008.8 | |||||||
| 05 | 22:53 | N 12 | 10.00 | Overcast | OVC032 | 60.1 | 53.1 | 78% | 29.81 | 1008.5 | |||||||
| 05 | 21:53 | N 12 | 10.00 | Fair | CLR | 63 | 54 | 73% | 29.79 | 1007.6 | |||||||
| 05 | 20:53 | N 9 | 10.00 | Fair | CLR | 66.9 | 55 | 66% | 29.73 | 1005.7 | |||||||
| 05 | 19:53 | N 10 G 20 | 10.00 | Fair | CLR | 70 | 57 | 64% | 29.7 | 1004.7 | |||||||
| 05 | 18:53 | N 15 | 10.00 | Fair | CLR | 72 | 57 | 89.1 | 72 | 59% | 29.69 | 1004.4 | |||||
| 05 | 17:53 | N 13 | 10.00 | Fair | CLR | 77 | 60.1 | 56% | 79 | 29.67 | 1003.3 | ||||||
| 05 | 16:53 | N 14 | 10.00 | Fair | CLR | 84 | 62.1 | 48% | 85 | 29.65 | 1002.7 | ||||||
| 05 | 15:53 | N 12 | 10.00 | Fair | CLR | 86 | 59 | 40% | 85 | 29.66 | 1002.8 | ||||||
| 05 | 14:53 | W 9 | 10.00 | Fair | CLR | 88 | 63 | 43% | 89 | 29.66 | 1002.9 | ||||||
| 05 | 13:53 | SW 12 | 10.00 | Fair | CLR | 87.1 | 64 | 46% | 88 | 29.67 | 1003.3 | ||||||
| 05 | 12:53 | SW 9 | 10.00 | Fair | CLR | 84 | 66.9 | 84 | 68 | 57% | 87 | 29.68 | 1003.6 | ||||
| 05 | 11:53 | SW 13 | 10.00 | Fair | CLR | 82 | 66 | 58% | 84 | 29.68 | 1003.6 | ||||||
| 05 | 10:53 | SW 13 | 10.00 | Fair | CLR | 81 | 66.9 | 62% | 83 | 29.67 | 1003.2 | ||||||
| 05 | 09:53 | S 10 G 21 | 10.00 | Fair | CLR | 78.1 | 66.9 | 69% | 80 | 29.66 | 1003.1 | ||||||
| 05 | 08:53 | S 10 | 10.00 | Fair | CLR | 73.9 | 66 | 76% | 29.67 | 1003.3 | |||||||
| 05 | 07:53 | S 9 | 10.00 | Fair | CLR | 69.1 | 64 | 84% | 29.65 | 1002.8 | |||||||
| 05 | 06:53 | S 9 | 10.00 | Fair | CLR | 68 | 63 | 73.9 | 68 | 84% | 29.64 | 1002.3 | |||||
| 05 | 05:53 | S 7 | 10.00 | Fair | CLR | 69.1 | 63 | 81% | 29.63 | 1001.9 | |||||||
| 05 | 04:53 | S 10 | 10.00 | Fair | CLR | 70 | 63 | 79% | 29.63 | 1001.9 | |||||||
| 05 | 03:53 | S 13 | 10.00 | Fair | CLR | 71.1 | 63 | 76% | 29.63 | 1002.0 | |||||||
| 05 | 02:53 | S 12 G 26 | 10.00 | Fair | CLR | 73 | 63 | 71% | 29.65 | 1002.4 | |||||||
| 05 | 01:53 | S 10 | 10.00 | Fair | CLR | 73 | 63 | 71% | 29.67 | 1003.2 | |||||||
| 05 | 00:53 | S 15 G 24 | 10.00 | Fair | CLR | 73.9 | 63 | 80.1 | 73 | 69% | 29.67 | 1003.4 | |||||
| 04 | 23:53 | S 13 G 24 | 10.00 | Fair | CLR | 75 | 63 | 66% | 77 | 29.68 | 1003.6 | ||||||
| 04 | 22:53 | S 12 | 10.00 | Fair | CLR | 75 | 63 | 66% | 77 | 29.67 | 1003.6 | ||||||
| 04 | 21:53 | SE 12 | 10.00 | Fair | CLR | 73.9 | 64 | 71% | 29.67 | 1003.5 | |||||||
| 04 | 20:53 | SE 9 | 10.00 | Fair | CLR | 75 | 63 | 66% | 77 | 29.67 | 1003.4 | ||||||
| 04 | 19:53 | S 9 | 10.00 | Fair | CLR | 77 | 64 | 64% | 79 | 29.67 | 1003.6 | ||||||
| 04 | 18:53 | S 14 | 10.00 | Fair | CLR | 80.1 | 63 | 84 | 78.1 | 56% | 81 | 29.68 | 1004.1 | ||||
| 04 | 17:53 | S 16 G 25 | 10.00 | Fair | CLR | 81 | 64 | 57% | 83 | 29.69 | 1004.4 | ||||||
| Date | Time (cdt) | Wind (mph) | Vis. (mi.) | Weather | Sky Cond. | Air | Dwpt | Max. | Min. | Relative Humidity | Wind Chill (°F) | Heat Index (°F) | altimeter (in) | sea level (mb) | 1 hr | 3 hr | 6 hr |
| 6 hour | |||||||||||||||||
| Temperature (ºF) | Pressure | Precipitation (in) | |||||||||||||||